Change the Weather History Date:

Monday, March 12, 2012

  Actual Average Record
Temperature  
Mean Temperature 31 °F 26 °F  
Max Temperature 41 °F 41 °F 59 °F (1992)
Min Temperature 21 °F 11 °F -31 °F (1922)
Degree Days  
Heating Degree Days 34 39  
Month to date heating degree days 516 486  
Since 1 July heating degree days 8064 8020  
Cooling Degree Days 0 0  
Month to date cooling degree days 0 0  
Year to date cooling degree days 0 0  
Moisture  
Dew Point 23 °F    
Average Humidity 68    
Maximum Humidity 92    
Minimum Humidity 44    
Precipitation  
Precipitation 0.01 in 0.06 in 0.50 in (1964)
Month to date precipitation 0.62 0.55  
Year to date precipitation 4.71 3.86  
Sea Level Pressure  
Sea Level Pressure 29.74 in    
Wind  
Wind Speed 7 mph (SSE)    
Max Wind Speed 16 mph    
Max Gust Speed 27 mph    
T = Trace of Precipitation, MM = Missing Value Source: NWS Daily Summary

Daily Weather History Graph

Daily Weather History Graph

Search for Another Location

Airport or City:

Trip Planner

Search our weather history database for the weather conditions in past years. The results will help you decide how hot, cold, wet, or windy it might be!

Date:

Astronomy

Mar. 12, 2012 Rise Set
Actual Time 7:56 AM MDT 7:42 PM MDT
Civil Twilight 7:27 AM MDT 8:11 PM MDT
Nautical Twilight 6:54 AM MDT 8:45 PM MDT
Astronomical Twilight 6:20 AM MDT 9:19 PM MDT
Moon 12:23 AM MDT (3/12) 10:07 AM MDT (3/12)
Length of Visible Light 12h 44m
Length of Day
11h 46m
Waning Gibbous, 75% of the Moon is Illuminated
Mar 12
Waning Gibbous
Mar 14
Last Quarter
Mar 22
New
Mar 30
First Quarter
Apr 6
Full

Hourly Weather History & Observations

Time (MDT) Temp. Windchill Dew Point Humidity Pressure Visibility Wind Dir Wind Speed Gust Speed Precip Events Conditions
12:51 AM 27.0 °F 20.5 °F 24.1 °F 89% 29.69 in - SSE 5.8 mph - N/A   Unknown
1:51 AM 26.1 °F - 24.1 °F 92% 29.72 in - Calm Calm - N/A   Unknown
2:51 AM 25.0 °F 20.7 °F 21.0 °F 85% 29.74 in - ESE 3.5 mph - N/A   Unknown
3:51 AM 23.0 °F - 19.9 °F 88% 29.78 in - Calm Calm - N/A   Unknown
4:51 AM 21.9 °F - 19.0 °F 89% 29.78 in - Calm Calm - N/A   Unknown
5:51 AM 21.9 °F - 19.9 °F 92% 29.78 in - Calm Calm - N/A   Unknown
6:51 AM 24.1 °F - 19.9 °F 84% 29.78 in - Calm Calm - N/A   Unknown
7:51 AM 27.0 °F 21.6 °F 21.0 °F 78% 29.77 in - South 4.6 mph - N/A   Unknown
8:51 AM 28.9 °F 22.8 °F 21.9 °F 75% 29.77 in - SSE 5.8 mph - N/A   Unknown
9:51 AM 30.0 °F 22.4 °F 24.1 °F 79% 29.77 in - South 8.1 mph - N/A   Unknown
10:51 AM 30.9 °F 21.7 °F 25.0 °F 79% 29.78 in - SSE 11.5 mph 21.9 mph N/A   Unknown
11:51 AM 32.0 °F 22.5 °F 25.0 °F 75% 29.77 in - SE 12.7 mph 25.3 mph N/A   Unknown
12:51 PM 33.1 °F 22.6 °F 25.0 °F 72% 29.77 in - SE 16.1 mph 26.5 mph N/A   Unknown
1:51 PM 32.0 °F 22.5 °F 26.1 °F 79% 29.78 in - SSE 12.7 mph 24.2 mph N/A   Unknown
2:51 PM 33.1 °F 22.6 °F 26.1 °F 75% 29.75 in - SSE 16.1 mph 26.5 mph N/A   Unknown
3:51 PM 32.0 °F 24.2 °F 27.0 °F 82% 29.78 in - SSE 9.2 mph 18.4 mph N/A   Unknown
4:51 PM 34.0 °F 26.0 °F 26.1 °F 73% 29.77 in - South 10.4 mph - 0.01 in   Unknown
5:51 PM 37.0 °F 31.0 °F 23.0 °F 57% 29.74 in - SSE 8.1 mph - N/A   Unknown
6:51 PM 37.0 °F 29.8 °F 24.1 °F 59% 29.72 in - SSE 10.4 mph - N/A   Unknown
7:51 PM 34.0 °F 29.8 °F 21.9 °F 61% 29.70 in - Variable 4.6 mph - N/A   Unknown
8:51 PM 35.1 °F 28.6 °F 19.9 °F 54% 29.67 in - SSE 8.1 mph - N/A   Unknown
9:51 PM 37.0 °F 30.4 °F 19.9 °F 50% 29.64 in - South 9.2 mph 16.1 mph N/A   Unknown
10:51 PM 39.0 °F 31.8 °F 19.9 °F 46% 29.63 in - South 11.5 mph - N/A   Unknown
11:51 PM 39.0 °F 33.4 °F 19.9 °F 46% 29.62 in - SE 8.1 mph 18.4 mph N/A   Unknown